Location: Bottenau
(48.5138°N, 8.0462°E)
Time: 05:16:06
(UTC+00:00)

SL-16 R/B - Pass Details

Date: 18 April 2021
Orbit: 840 x 849 km, 71.0° (Epoch: 09 May)

Event Time Altitude Azimuth Distance (km) Brightness Sun altitude
Rises 22:11:59 0° 326° (NW) 3,423 6.5 -28.1°
Reaches altitude 10° 22:14:37 10° 317° (NW) 2,482 5.5 -28.2°
Maximum altitude 22:19:43 35° 254° (WSW) 1,339 3.2 -28.5°
Enters shadow 22:19:44 35° 253° (WSW) 1,339 3.2 -28.5°
